Location: Villingen
(48.0639°N, 8.4609°E)
Time: 06:36:23
(UTC+01:00)

ISS - Pass Details

Date: 13 January 2018
Orbit: 402 x 407 km, 51.6° (Epoch: 19 January)

Event Time Altitude Azimuth Distance (km) Brightness Sun altitude
Exits shadow 07:06:35 14° 261° (W) 1,269 -1.8 -10.7°
Maximum altitude 07:08:25 20° 220° (SW) 997 -2.0 -10.5°
Drops below altitude 10° 07:10:54 10° 171° (S) 1,460 -0.6 -10.1°
Sets 07:13:19 0° 154° (SSE) 2,317 0.8 -9.7°
